Regional Weather Roundup
Issued by NWS Albany, NY

Home | Current Version | Previous Version | Graphics & Text | Print | Product List | Glossary Off
Versions: 1 2 3 4 5 6 7 8 9 10 11 12 13 14 15 16 17 18 19 20 21 22 23 24 25 26 27 28 29 30 31 32 33 34 35 36 37 38 39 40 41 42 43 44 45 46 47 48 49 50

000
ASUS41 KALY 022110
RWRALY

NEW YORK STATE HOURLY WEATHER ROUNDUP
NATIONAL WEATHER SERVICE ALBANY NY
500 PM EDT TUE JUN 02 2015

NOTE: "FAIR" INDICATES FEW OR NO CLOUDS BELOW 12,000 FEET WITH NO
SIGNIFICANT WEATHER AND/OR NO OBSTRUCTIONS TO VISIBILITY.

NYZ032-033-038>043-046>054-057>066-NYZ062>081-022200-
EAST


CITY           SKY/WX    TMP DP  RH WIND       PRES   REMARKS
ALBANY         CLOUDY    62  48  60 VRB3      30.14F
GLENS FALLS    CLOUDY    61  50  67 E5        30.12F
POUGHKEEPSIE   CLOUDY    58  50  75 N8        30.12F
NEWBURGH       DRIZZLE   54  52  94 E8        30.14F
MONTGOMERY     CLOUDY    57  51  80 NE9       30.12F
WHITE PLAINS   LGT RAIN  54  52  93 CALM      30.12S
ISLIP          LGT RAIN  53  50  89 NE9       30.10F
NEW YORK CITY  LGT RAIN  54  50  86 NE8       30.12S
CENTRAL PARK   LGT RAIN  54  51  90 E3        30.15S
$$

NYZ005>009-017-018-044>046-055-056-022200-
CENTRAL


CITY           SKY/WX    TMP DP  RH WIND       PRES   REMARKS
FULTON         PTSUNNY   62  48  60 N9        30.17S
SYRACUSE       CLOUDY    61  51  70 NW8       30.15F
ROME           PTSUNNY   62  52  69 SW5       30.14F
ELMIRA         CLOUDY    60  51  72 NE10      30.15S
BINGHAMTON     CLOUDY    56  49  77 N9        30.14F
MONTICELLO     CLOUDY    52  50  93 CALM      30.13S
$$

NYZ026>034-041>043-022200-
NORTH


CITY           SKY/WX    TMP DP  RH WIND       PRES   REMARKS
WATERTOWN      CLOUDY    60  45  57 N12       30.18S
FORT DRUM      NOT AVBL
MASSENA        CLOUDY    56  47  71 NE7       30.20F
SARANAC LAKE   CLOUDY    52  46  80 N8        30.15R
PLATTSBURGH    LGT RAIN  53  51  93 N14       30.17S FOG
$$

NYZ001>004-010>016-019>021-022200-
WEST


CITY           SKY/WX    TMP DP  RH WIND       PRES   REMARKS
NIAGARA FALLS  PTSUNNY   66  44  45 E10       30.15F
BUFFALO        PTSUNNY   65  42  43 NE15      30.16F
DUNKIRK        SUNNY     66  46  48 N13       30.14F
JAMESTOWN      MOSUNNY   63  45  51 N8        30.15F
WELLSVILLE     MOSUNNY   64  42  44 N6        30.16F
ROCHESTER      PTSUNNY   62  44  51 E7        30.18F
PENN YAN       PTSUNNY   59  48  67 NW6       30.18S
$$

             KEY
       WCI = WIND CHILL INDEX
       VSB = VISIBILITY
       HX  = HEAT INDEX
$$


USA.gov is the U.S. government's official web portal to all federal, state and local government web resources and services.